Theta_e
353 352 352 353 352 353 353 353 355 355 360 355 352 356 351 353 353 350 354 351 347 345 346 346 346 346 349 352 349 348 345 346 347 346 346 344 340 341 339 337 336 336 336 337 341 344 344 344 344 343 342 343 344 343 342 340 339 338 338 340 340 341 341 341 342 343 344 345 345 344 343 342 341 341 342 342 342 343 344 344 343 342 341 342 341 340 339 340 343 344 344 343 343 342 343 343 343
352 352 351 352 351 353 353 354 361 360 357 352 352 357 355 355 353 351 354 351 349 345 345 346 346 346 346 348 345 347 348 346 346 344 344 342 342 343 339 336 336 336 336 337 339 341 341 342 343 343 343 343 343 341 341 340 339 338 339 341 342 342 342 342 342 343 345 346 346 344 343 342 341 341 341 342 342 342 343 343 343 343 342 342 341 340 340 340 341 344 343 343 343 343 343 343 342
351 352 351 351 351 351 353 356 363 359 353 351 352 360 362 356 353 354 353 348 347 345 346 345 345 345 344 347 346 349 350 345 344 342 343 343 343 343 341 337 335 336 336 337 338 339 339 340 342 343 343 343 342 341 341 340 340 341 343 344 344 344 344 343 342 343 345 346 346 345 343 342 341 340 340 340 341 340 341 342 343 344 343 342 342 341 341 340 340 342 343 343 343 343 343 342 342
350 351 351 351 352 353 359 362 363 359 353 351 351 358 363 356 353 355 350 344 346 345 345 345 346 345 344 347 346 347 347 345 344 341 343 344 343 343 343 339 337 337 338 338 339 338 337 339 342 343 343 342 342 342 343 342 342 343 345 345 344 344 343 342 341 343 345 347 346 345 343 342 340 340 340 340 341 340 339 340 343 344 343 343 342 341 340 339 339 340 341 341 342 342 341 341 341
349 350 351 351 354 356 362 363 361 359 355 355 356 361 361 355 358 356 347 343 343 344 344 345 346 344 344 345 344 346 347 345 344 341 344 345 344 344 344 341 338 338 338 338 338 338 336 337 340 341 342 343 342 343 343 343 343 344 345 344 344 343 343 341 341 343 346 347 346 345 342 342 341 341 341 341 341 340 340 341 343 344 344 343 342 341 339 338 338 338 339 340 340 339 338 339 340
348 350 351 351 353 354 361 360 357 360 358 360 363 364 359 354 358 352 346 344 343 342 344 344 344 344 345 344 343 346 346 346 345 343 346 346 345 344 343 340 338 339 338 338 338 337 336 335 338 340 342 342 342 342 343 342 342 344 345 344 343 343 343 342 342 343 345 346 346 345 343 342 341 341 340 339 339 340 341 341 343 344 344 344 343 341 340 339 338 338 338 339 340 338 337 338 339
348 350 351 354 353 354 363 359 355 361 359 358 361 360 357 352 350 349 347 344 344 344 344 345 344 345 346 346 345 346 347 345 345 345 346 347 346 344 342 341 341 339 338 338 338 337 337 336 339 341 343 343 343 342 342 342 343 345 346 344 343 343 342 342 342 342 343 345 345 345 343 341 340 340 339 338 338 340 340 341 342 343 343 343 342 341 340 339 339 339 338 339 339 337 337 337 336
349 350 350 357 361 360 364 359 356 360 357 353 354 354 353 350 346 350 350 344 345 345 344 345 345 347 347 347 348 347 347 345 345 346 346 347 347 345 345 345 343 340 338 338 337 338 338 339 341 343 343 343 342 343 343 343 343 344 345 344 343 343 343 342 341 341 342 343 345 344 342 339 338 338 338 339 339 339 339 339 340 340 341 340 340 341 341 340 339 338 338 337 337 336 335 334 332
349 352 352 359 365 362 360 358 358 359 356 353 351 351 349 347 347 349 350 347 346 345 345 345 345 347 347 347 348 348 347 346 346 347 347 347 347 346 346 346 344 339 338 338 338 338 339 341 343 343 343 343 343 344 344 343 343 343 345 344 344 344 344 343 341 341 341 342 344 343 340 338 338 336 337 340 341 340 339 339 339 339 339 339 340 339 336 334 332 331 330 330 330 331 331 329 329
349 354 354 360 363 358 356 357 359 358 355 351 351 350 347 346 347 347 348 350 346 345 345 345 345 346 347 347 348 348 347 347 347 348 348 348 347 347 346 346 343 339 337 338 338 339 341 343 343 343 343 344 344 345 344 343 343 344 344 343 344 344 344 344 342 342 342 342 343 342 339 337 337 336 336 339 342 341 339 340 339 339 338 339 338 334 328 325 323 323 322 322 323 324 325 326 327
351 354 354 360 361 356 355 356 359 360 355 352 352 348 347 346 346 347 346 348 346 344 345 345 345 345 346 347 348 348 347 347 348 348 348 347 347 347 347 346 344 340 337 337 338 341 344 345 344 344 345 345 345 345 345 344 343 344 344 343 343 342 343 343 343 343 343 343 342 339 337 335 334 334 333 336 340 340 337 338 339 339 339 339 337 334 329 326 323 322 322 322 322 323 324 326 329
354 358 360 362 359 357 357 357 358 360 358 358 357 349 347 346 348 350 346 346 345 344 345 345 345 345 345 346 348 348 348 348 347 348 348 348 348 348 347 346 344 341 338 336 339 342 344 346 345 345 346 345 344 345 345 344 344 344 344 344 343 341 342 342 342 343 344 344 342 339 337 334 333 332 331 332 335 337 336 336 338 338 339 338 336 335 333 330 327 324 323 323 323 324 327 330 333
354 359 365 361 357 360 359 358 358 359 363 363 357 350 348 347 348 350 346 345 345 346 346 345 345 345 345 345 347 349 349 349 348 349 348 348 349 349 348 345 343 340 339 338 340 342 343 346 346 345 346 345 345 345 344 343 344 344 344 344 343 342 341 341 341 342 343 344 342 339 338 335 334 333 332 332 333 336 336 336 336 337 338 337 336 334 332 331 329 326 325 324 324 324 327 330 333
352 354 362 360 357 362 358 357 358 359 365 361 352 348 348 348 347 347 346 349 347 345 345 343 345 344 345 345 346 349 349 349 349 350 349 349 350 349 347 345 343 341 341 341 341 342 343 345 346 346 345 345 345 345 344 344 343 344 344 344 343 342 341 340 339 341 342 342 341 340 338 337 335 334 334 333 334 336 337 337 336 337 338 336 334 332 330 330 328 326 325 324 325 325 327 330 333
350 349 359 363 359 359 357 358 359 359 362 359 352 347 348 348 348 347 346 349 347 343 344 343 344 344 345 345 345 348 348 349 351 351 351 350 349 348 346 345 344 342 342 342 342 342 343 344 345 344 344 344 344 344 343 344 344 344 344 344 343 342 341 341 340 341 340 339 340 340 339 338 336 335 334 334 334 336 336 337 337 337 337 333 330 328 328 328 327 328 331 333 333 333 334 336 338
349 351 361 362 356 357 358 359 358 361 362 356 350 347 350 351 348 349 346 345 345 343 344 344 343 343 344 345 345 347 348 350 351 350 349 348 348 347 346 345 344 343 343 342 342 342 343 343 343 343 343 343 343 342 341 342 343 343 345 344 342 342 342 342 341 341 339 339 339 340 340 338 338 336 336 335 335 336 336 337 336 336 333 329 328 328 329 329 330 334 338 341 341 341 341 342 342
349 357 364 360 358 359 359 360 359 361 361 353 348 347 355 356 349 349 346 344 344 342 344 343 342 343 344 345 345 347 348 350 350 348 347 347 347 346 346 345 344 345 344 343 342 342 343 343 343 342 343 343 342 342 340 341 343 343 344 343 343 342 342 342 342 341 340 341 341 340 340 338 337 337 336 336 336 336 336 335 334 333 329 328 329 331 333 335 336 338 340 342 342 342 342 342 343
353 363 365 360 362 363 358 359 358 357 357 352 347 345 353 359 350 347 346 344 344 343 342 342 343 343 344 345 345 347 347 348 347 346 346 346 347 346 346 345 345 345 344 343 343 343 343 343 343 343 343 342 342 342 341 341 342 342 343 343 343 342 341 341 341 342 342 342 341 340 339 337 336 336 336 336 336 335 334 332 330 329 328 329 332 335 338 340 342 342 342 342 342 341 341 342 342
354 364 366 360 362 362 357 356 354 355 356 350 347 345 349 355 348 346 348 345 344 343 342 342 344 343 344 346 347 347 347 346 346 345 346 346 346 346 345 345 345 345 344 345 345 344 344 344 344 343 343 342 342 341 340 341 341 341 342 342 342 342 341 340 341 342 342 341 340 339 338 337 336 336 336 335 335 334 332 330 328 328 331 333 337 339 341 342 344 344 344 344 343 343 343 343 344
350 361 369 362 359 360 356 353 350 350 352 349 349 347 348 351 347 348 347 346 347 344 342 343 343 342 345 347 348 347 347 346 345 345 345 346 346 346 345 345 345 345 345 345 345 345 344 344 344 343 343 342 341 341 341 341 340 341 341 340 341 341 339 339 340 340 340 339 338 338 337 337 337 336 335 334 333 332 332 330 329 331 336 340 342 343 344 344 344 344 345 345 345 345 345 345 344
349 360 369 360 355 359 355 351 349 348 350 349 348 347 350 351 349 350 347 349 349 343 343 343 343 343 344 347 347 347 347 346 346 345 345 346 346 346 346 345 346 346 345 345 345 345 344 344 343 343 343 342 342 341 341 340 340 341 340 339 338 338 337 338 338 337 336 335 336 337 336 337 337 335 332 331 332 332 332 330 330 334 339 342 344 346 346 346 346 345 345 345 346 346 345 345 344
354 358 359 355 354 359 355 348 350 351 350 348 348 350 351 349 349 349 348 349 347 343 343 343 343 343 343 345 346 346 346 346 346 345 345 347 347 347 347 346 346 346 345 344 344 344 344 344 343 342 342 342 342 341 340 340 339 340 339 338 336 336 337 338 338 336 334 332 333 335 336 336 335 331 329 330 333 333 332 330 332 337 342 345 346 347 348 348 348 347 346 346 345 345 345 343 343
360 357 352 353 353 357 354 350 352 352 349 348 350 352 349 349 350 348 346 346 345 343 343 343 343 343 344 344 345 346 345 345 345 345 347 347 347 347 347 346 346 346 345 344 343 343 343 343 343 342 342 342 342 341 340 339 339 338 338 336 336 337 338 339 339 337 333 331 331 332 333 331 330 329 330 332 333 332 331 333 338 343 346 347 348 348 348 348 348 348 347 346 345 345 344 342 343
360 360 353 353 353 353 353 352 353 352 350 349 350 350 348 350 352 349 346 344 344 343 343 343 343 344 344 344 344 344 345 345 345 346 348 347 347 347 347 346 346 345 344 343 342 342 343 342 342 342 343 342 342 341 340 339 338 338 337 336 337 338 339 340 338 334 330 329 328 329 329 329 330 330 332 333 333 332 333 339 344 346 348 348 348 348 348 348 347 347 347 345 344 344 344 343 342
356 359 354 352 353 353 352 351 352 352 351 350 350 351 348 349 353 351 347 344 344 344 343 343 343 344 344 344 344 344 345 346 347 347 348 347 347 347 347 346 345 345 343 343 342 342 342 341 342 342 342 342 341 341 340 339 338 337 336 337 339 339 339 337 334 332 331 329 328 328 331 334 337 336 334 335 336 337 339 343 346 347 348 348 348 348 348 348 347 347 346 345 345 344 343 343 343
355 355 353 352 352 351 352 351 352 352 351 351 352 352 351 351 353 352 346 344 344 344 344 343 343 343 344 344 343 344 344 346 347 348 348 348 348 348 348 347 346 345 343 343 343 342 342 341 341 341 341 341 341 340 339 337 337 337 337 338 340 339 338 337 336 337 337 336 336 335 338 341 343 342 338 337 341 343 345 346 347 348 348 348 348 348 347 347 347 347 347 346 346 345 343 343 343
355 353 352 352 351 351 351 350 351 353 352 352 354 357 354 352 355 353 345 344 344 344 344 343 343 343 344 344 343 344 345 346 348 348 348 348 348 348 348 347 346 345 343 343 342 342 342 342 342 341 340 339 339 339 337 336 337 338 339 339 340 340 340 341 341 341 341 341 342 342 344 345 345 344 341 341 343 345 347 347 347 348 348 348 348 349 348 348 348 347 347 347 346 345 344 343 343
353 352 353 351 350 351 350 349 349 353 355 351 353 358 354 353 355 353 347 344 344 343 343 343 343 344 344 343 343 345 346 347 348 347 348 348 348 348 348 347 346 345 343 342 342 342 342 342 342 340 338 337 337 337 337 337 338 339 340 340 341 341 341 342 343 342 342 343 343 343 344 346 346 344 343 344 345 346 347 347 347 348 348 349 349 349 349 348 348 347 345 345 345 345 345 344 344
352 352 355 353 353 354 351 350 347 351 356 351 352 355 358 364 359 352 350 344 344 343 343 343 343 344 344 344 344 346 347 347 348 348 348 348 348 348 348 347 346 344 343 342 342 343 343 343 343 341 338 337 337 337 338 338 338 340 341 341 341 342 343 343 344 344 343 343 342 343 343 345 346 345 344 345 346 347 347 347 348 348 349 349 349 349 348 347 347 346 345 345 344 344 344 344 343
355 354 356 357 359 357 352 350 349 352 354 350 354 355 359 369 358 350 352 344 343 343 342 343 343 344 344 344 346 346 347 347 348 348 347 348 348 348 348 348 347 344 343 342 342 343 344 344 344 342 339 338 338 339 339 339 340 342 342 342 343 343 344 344 344 345 345 344 343 342 342 344 345 345 345 346 347 348 347 348 349 349 350 350 350 349 348 347 347 345 345 344 344 344 343 342 342
358 356 355 360 360 355 353 352 352 356 352 348 356 355 357 366 356 350 354 346 343 343 343 344 344 345 345 346 347 347 348 347 347 347 347 348 348 348 349 349 347 345 344 342 342 343 344 344 343 343 341 340 341 341 341 342 343 343 343 344 344 344 344 343 345 346 346 345 344 343 342 344 346 346 346 347 347 348 348 349 349 349 350 350 350 349 348 347 346 345 344 344 344 343 343 342 342
356 354 351 355 356 354 357 354 353 358 355 350 356 355 358 365 356 350 355 350 346 344 343 345 344 346 347 347 347 347 348 348 347 347 347 347 347 348 349 349 348 346 345 344 343 344 344 344 342 342 341 342 343 343 344 345 344 344 344 345 345 345 344 344 346 346 345 345 344 343 342 344 346 346 347 347 348 349 348 348 348 348 349 350 349 348 348 346 345 344 343 344 343 343 342 341 342
352 354 351 352 355 356 359 356 353 356 355 354 356 358 362 364 355 351 355 352 348 347 344 344 345 346 347 347 347 348 348 348 347 347 347 347 347 348 349 349 348 347 346 345 345 345 345 345 343 341 342 343 344 344 345 345 344 345 345 345 345 345 344 345 346 345 344 344 344 343 343 345 346 346 347 348 348 348 348 348 348 348 349 349 348 347 347 346 344 344 343 343 342 342 341 340 340
350 352 354 352 353 355 358 359 356 354 356 357 358 361 363 362 355 351 354 353 350 349 347 345 345 346 348 348 348 348 349 349 348 347 347 347 347 348 349 350 349 348 347 346 346 347 347 345 344 343 344 345 345 346 345 344 345 345 345 345 345 344 344 345 345 343 342 342 343 343 344 346 346 346 347 348 348 347 347 349 348 348 349 348 347 347 346 345 344 343 343 342 342 343 342 340 339
347 347 351 349 351 353 355 358 358 355 357 359 358 361 362 361 357 351 353 354 352 351 350 347 346 347 348 348 348 348 349 349 347 348 348 347 348 348 349 350 350 349 348 347 348 349 349 347 346 346 345 345 345 345 345 345 345 345 345 345 344 344 345 343 341 339 341 341 342 343 343 346 347 346 347 347 348 347 347 348 348 347 347 348 348 347 345 345 344 343 343 343 344 344 343 341 340
349 348 350 349 350 352 354 357 357 354 357 359 358 359 360 360 360 355 353 354 352 352 351 350 348 347 348 348 348 348 349 349 348 347 347 347 347 348 349 350 350 350 349 349 349 349 349 348 348 346 344 345 345 344 344 345 345 345 345 345 345 345 345 343 341 341 343 342 341 342 342 345 347 347 347 347 348 348 346 346 347 346 346 347 347 347 346 345 345 344 343 344 346 345 343 342 341
344 346 351 352 350 350 355 359 356 352 355 357 355 358 361 359 360 357 353 355 354 353 352 351 349 347 348 348 348 349 348 348 348 347 347 348 348 348 349 349 350 350 350 349 349 348 348 349 347 345 344 345 345 344 343 344 345 345 345 344 344 344 344 343 344 345 346 343 341 341 342 344 347 347 347 348 348 346 344 344 345 344 345 347 346 346 346 346 346 344 343 345 346 345 343 343 342
340 343 349 351 350 352 357 360 357 353 356 359 355 357 360 356 357 355 353 356 355 354 353 351 349 348 348 349 348 349 348 347 348 348 347 348 348 349 349 349 350 351 350 349 349 348 347 348 347 345 345 346 346 345 343 344 345 345 344 344 344 344 343 344 344 346 347 345 342 341 341 343 346 348 348 348 347 346 344 344 344 343 344 347 347 346 345 345 345 343 342 345 346 345 344 342 342
338 342 347 348 352 356 357 360 358 355 356 358 355 355 358 357 356 355 353 356 354 352 353 350 349 350 348 349 349 348 348 347 348 347 348 349 349 350 349 349 351 350 350 349 349 348 347 348 347 345 346 347 346 345 343 344 345 345 344 344 344 343 343 344 346 346 346 345 343 342 341 341 344 348 349 349 348 346 346 344 343 341 343 346 346 345 344 344 342 341 342 344 346 345 344 343 343
336 346 347 348 353 353 352 356 358 357 356 358 356 355 360 361 359 357 353 353 354 352 352 351 349 350 349 348 349 349 348 347 348 347 348 349 349 349 349 349 350 350 350 349 348 347 347 348 348 345 345 346 345 344 344 344 346 346 344 344 345 344 344 346 347 347 346 344 342 343 342 340 342 346 349 349 348 347 347 344 341 341 342 344 343 342 344 344 342 342 343 343 345 346 345 345 344
331 343 350 351 353 353 353 357 359 357 354 357 356 350 356 362 358 358 355 350 352 352 353 354 350 350 351 349 348 349 349 348 348 348 347 349 349 349 349 349 350 350 350 349 347 347 347 347 348 345 343 345 345 344 344 345 346 345 344 344 345 345 346 347 347 347 347 345 343 343 342 341 342 344 345 346 346 346 345 343 341 342 342 341 341 340 342 342 341 343 343 343 345 345 346 346 344
323 333 351 355 354 357 357 358 359 353 350 355 353 343 351 363 357 356 357 353 352 351 353 356 353 351 352 351 350 348 349 349 348 347 347 348 348 349 349 349 350 350 349 349 347 346 346 347 347 344 343 344 344 343 345 346 346 345 345 346 346 346 347 348 347 346 345 344 343 342 342 342 342 342 342 343 345 344 343 341 340 342 342 340 340 340 340 340 342 344 343 344 346 345 345 346 345
318 325 342 349 352 359 358 356 355 351 350 354 352 341 344 359 359 355 357 355 354 352 353 355 354 353 353 352 350 348 349 349 348 348 347 348 348 349 350 349 350 351 349 348 347 346 346 346 346 343 342 343 343 344 346 347 346 347 347 347 347 347 347 347 347 346 344 342 343 343 342 342 342 342 342 343 344 344 343 342 341 342 341 340 340 340 340 340 342 343 343 343 344 344 344 345 346
319 323 337 349 352 352 355 356 353 354 353 349 352 348 342 353 360 354 355 356 354 354 354 354 354 353 353 353 350 348 349 349 348 348 348 348 348 349 349 349 350 350 349 348 347 347 347 346 345 342 341 342 344 346 348 347 347 348 347 348 347 347 347 347 348 348 346 345 344 342 341 342 343 343 343 344 343 343 343 343 343 343 341 340 341 340 340 342 343 343 343 343 342 342 343 343 345
323 322 333 347 350 351 355 353 349 352 349 341 348 350 342 352 361 352 352 357 354 355 354 352 354 353 353 353 351 349 349 349 349 349 348 348 348 348 349 349 349 350 349 348 347 347 347 347 345 343 341 342 345 347 348 348 347 348 347 347 347 347 348 348 348 349 349 348 346 343 341 342 344 343 343 344 343 341 342 343 343 343 341 340 340 340 341 344 346 345 345 345 344 342 341 341 343
324 321 325 333 340 351 353 348 346 340 333 334 343 346 340 349 362 354 351 357 355 353 353 351 352 353 353 353 353 350 348 349 350 350 349 348 348 348 348 348 349 349 349 348 347 347 347 347 347 345 341 341 344 346 348 348 347 348 348 347 347 348 349 350 349 350 350 349 348 346 344 343 345 344 343 344 343 341 342 342 342 343 342 341 341 342 342 345 348 348 347 347 344 342 341 341 343
324 324 326 322 331 343 343 346 346 328 326 338 346 348 341 340 356 360 356 360 358 353 353 352 352 353 353 353 353 352 349 349 350 350 350 348 347 348 348 348 349 349 349 348 348 348 348 347 348 347 342 340 342 344 347 348 347 348 348 347 348 349 350 350 349 349 349 348 348 348 346 345 345 346 345 343 342 342 342 342 342 343 345 344 341 341 343 347 349 347 346 345 342 342 343 342 342
324 328 327 321 326 336 338 343 337 321 329 347 350 350 340 336 351 361 358 358 357 356 357 354 352 353 353 353 353 352 350 349 349 349 350 349 347 347 348 348 349 349 349 349 349 348 348 348 348 347 344 341 341 342 345 347 347 348 348 347 349 350 350 349 348 348 348 347 348 349 348 346 344 346 348 345 341 342 342 341 342 342 344 345 343 342 346 349 349 346 345 345 344 345 346 343 342
325 327 326 321 322 324 327 333 330 325 333 345 350 347 340 343 352 354 356 357 354 355 355 353 352 352 353 353 353 352 350 348 349 349 350 350 348 347 348 348 348 349 349 349 349 349 348 349 348 346 345 343 341 340 343 345 346 347 348 348 348 348 348 348 347 347 348 347 348 349 348 347 345 345 347 345 343 343 342 341 341 341 342 343 343 344 347 350 350 347 348 350 349 350 348 345 345
324 325 324 323 325 322 323 330 331 331 338 347 352 344 339 347 350 348 354 354 350 351 351 351 352 352 353 353 352 352 350 348 348 349 349 350 349 348 348 348 348 349 349 348 348 349 349 349 349 346 343 343 341 338 338 341 343 344 346 346 345 346 348 348 347 347 348 348 348 348 348 347 346 345 345 344 344 344 343 342 341 341 341 342 343 346 348 350 349 348 350 351 351 349 348 348 350
327 329 329 327 330 328 327 333 329 329 340 349 348 338 337 343 347 350 350 346 348 350 350 351 351 351 353 353 352 353 350 348 348 348 349 349 349 348 348 348 348 349 349 348 348 348 349 348 349 346 343 342 341 337 335 337 339 340 343 344 344 345 346 347 347 347 348 348 348 348 347 346 346 345 346 346 347 348 347 344 344 343 343 343 345 346 346 346 346 347 349 351 350 347 345 348 351
328 333 333 328 332 337 335 336 334 333 342 349 344 338 342 346 348 353 349 346 349 348 348 351 351 351 353 352 353 352 350 349 348 349 348 348 348 348 348 348 348 348 349 348 347 348 348 348 347 347 343 340 339 337 335 335 338 338 340 342 344 344 343 344 345 345 346 347 346 345 344 345 345 345 347 349 350 351 350 348 348 348 347 346 346 345 344 344 344 345 347 347 347 345 343 346 349
334 334 333 330 333 341 337 332 335 338 336 339 340 340 346 348 348 352 352 353 354 350 350 350 349 351 352 352 353 352 350 348 347 349 349 349 349 348 348 348 348 349 348 348 348 347 348 347 347 347 345 341 337 337 335 335 337 338 339 340 341 342 341 343 344 344 345 345 344 343 342 343 345 345 347 349 350 351 351 351 351 351 351 348 345 345 344 344 344 343 343 343 344 344 344 346 347
338 334 334 336 334 339 341 335 338 340 333 333 338 340 344 345 346 353 356 356 356 354 352 349 348 351 351 352 352 352 351 348 347 349 349 349 350 349 349 348 348 349 348 348 347 346 347 347 347 347 346 343 338 337 336 335 336 337 338 339 339 338 339 340 341 342 344 344 344 344 343 344 346 348 348 347 349 351 352 352 353 353 353 350 346 346 346 345 343 342 343 343 344 345 345 346 347
334 333 336 338 332 334 340 336 334 337 334 333 336 338 342 344 347 353 355 355 358 358 356 352 349 350 351 352 352 351 351 349 347 348 349 349 349 348 349 349 348 348 348 348 347 346 346 346 347 347 347 344 338 336 337 336 336 337 337 338 338 338 337 338 339 340 342 344 343 343 343 344 347 351 351 349 348 350 352 352 352 352 352 351 349 348 349 349 346 345 345 345 346 346 345 346 348
330 332 334 337 337 337 339 334 334 339 338 334 336 337 342 349 352 353 353 354 357 358 361 358 349 347 350 351 352 352 351 350 349 347 347 347 348 348 348 349 349 348 347 347 346 346 347 346 347 347 347 345 340 336 336 336 336 337 337 337 338 338 338 338 338 339 340 342 341 341 343 344 346 350 352 352 350 351 352 352 352 351 350 349 348 349 352 351 349 348 349 348 349 348 347 348 350
334 334 330 331 336 335 335 335 338 344 340 335 337 337 342 354 356 353 353 353 353 353 356 355 348 346 349 348 349 352 351 351 350 349 347 346 346 348 349 349 349 348 347 347 346 346 346 347 347 346 346 346 342 337 336 336 337 338 337 337 337 338 338 338 338 338 339 339 339 340 342 344 347 349 352 353 352 352 353 353 353 352 351 349 348 348 351 351 349 350 351 351 351 350 349 349 351
338 339 332 333 337 335 335 334 338 345 342 339 339 336 345 358 354 354 358 353 350 349 349 349 347 346 348 347 347 348 350 351 351 351 349 346 346 347 348 349 349 349 348 347 347 346 346 347 346 346 346 347 344 339 336 337 338 339 339 338 338 338 338 338 338 338 338 338 341 344 345 347 349 350 351 352 352 352 353 353 353 353 354 353 350 349 351 353 352 352 352 354 354 353 352 351 351
Wind_Speed
2 3 2 3 5 4 3 1 1 2 2 3 1 0 1 2 1 4 5 5 5 4 9 13 15 15 9 10 13 12 11 3 4 4 5 12 21 21 19 19 17 16 16 18 18 17 17 16 16 16 16 15 15 15 14 15 15 15 15 14 13 13 14 13 12 13 14 14 15 17 17 17 17 17 17 17 18 18 17 17 17 16 16 15 14 15 16 17 17 17 17 18 19 20 21 22 22
1 2 4 5 5 4 2 1 2 2 3 3 2 0 1 1 2 4 5 6 8 12 22 22 19 17 15 16 17 14 11 6 6 14 18 22 24 20 20 20 17 16 15 16 17 17 17 16 16 16 16 16 15 15 14 15 15 14 15 14 13 13 14 13 13 14 14 14 14 16 17 17 17 17 17 17 17 18 18 17 16 16 16 15 14 15 15 16 17 17 17 18 19 20 21 22 22
2 5 5 4 3 1 1 2 2 2 4 3 1 2 1 0 4 4 5 12 19 22 25 23 18 14 14 11 10 10 5 8 20 27 27 25 24 23 21 19 18 16 15 15 15 15 16 16 16 16 16 16 15 15 14 14 15 14 14 14 14 13 13 14 14 15 15 15 14 14 17 17 17 17 17 17 16 17 17 17 17 16 15 15 15 15 15 15 16 17 17 18 19 19 20 21 21
4 6 5 2 1 1 1 2 2 3 3 3 1 2 2 2 5 3 7 18 23 22 21 19 14 11 17 14 10 12 7 11 23 29 28 24 23 24 21 19 19 17 16 15 14 14 15 16 15 15 14 14 14 14 14 14 14 14 14 14 13 14 13 14 15 16 15 15 15 14 15 16 16 16 16 16 16 16 16 17 17 16 16 15 15 15 14 15 16 16 17 18 18 19 19 19 20
6 7 6 2 2 1 2 2 1 3 2 3 2 2 4 3 5 3 8 19 23 21 20 16 12 13 20 15 10 11 12 15 19 26 27 23 21 23 21 19 19 18 17 15 15 14 15 16 14 14 14 14 14 13 13 13 14 14 14 13 13 14 14 15 16 16 15 15 15 14 15 16 16 17 16 16 16 16 16 16 16 16 16 16 15 15 15 15 16 16 17 17 17 18 18 18 18
5 8 7 4 3 2 2 2 3 2 2 3 3 3 5 5 4 4 9 18 23 24 22 19 15 16 16 13 15 15 17 19 19 23 25 23 21 21 20 19 19 18 17 16 15 15 15 16 14 14 14 14 14 13 13 13 13 13 13 13 13 13 13 15 16 16 16 15 15 14 15 15 15 16 16 16 16 16 15 15 16 16 16 16 15 15 15 15 15 16 16 16 16 16 16 16 16
6 8 6 3 3 3 3 3 3 1 1 1 1 3 4 4 5 6 9 14 20 23 23 20 20 17 11 13 16 14 15 19 22 22 23 23 21 20 19 19 18 18 17 16 16 15 15 14 14 14 14 13 13 13 13 13 13 13 13 13 13 13 14 14 15 16 16 16 15 15 15 14 14 15 16 16 16 15 15 15 15 16 16 16 15 15 15 14 14 14 14 14 14 14 14 14 14
6 7 4 2 2 2 3 3 2 1 1 1 2 4 7 5 2 4 6 10 12 15 21 20 22 18 9 14 14 12 14 18 23 21 22 21 21 20 18 18 18 18 17 17 16 15 14 13 14 13 13 13 13 13 12 12 13 13 13 12 13 13 14 14 15 15 16 16 16 15 15 14 14 14 15 15 15 15 14 14 14 15 16 16 15 14 14 13 13 13 13 13 13 13 13 13 13
6 6 3 2 2 2 3 2 2 1 1 2 5 7 9 13 12 4 8 9 12 16 19 18 22 19 11 17 16 16 17 17 21 20 21 20 19 18 16 17 17 18 17 16 15 14 14 13 14 14 13 13 12 12 12 12 12 13 13 12 12 13 14 14 15 16 16 17 16 15 15 15 14 14 14 14 14 14 14 14 14 15 15 16 15 13 13 13 14 13 13 13 12 12 12 12 12
5 6 3 1 2 3 3 2 1 1 2 3 4 6 6 6 15 5 14 10 16 18 17 19 23 23 16 16 16 18 20 19 21 19 20 18 17 16 15 15 14 16 16 15 14 14 14 13 13 14 13 12 12 12 12 11 12 12 13 12 12 13 13 14 15 16 16 16 16 16 15 15 14 14 13 13 13 14 14 13 14 15 15 15 14 14 14 14 14 14 13 13 13 12 12 12 12
3 5 3 2 3 3 2 2 1 2 3 4 2 7 5 5 11 5 16 14 20 23 20 23 21 23 19 14 17 20 23 21 20 21 21 17 16 15 14 14 14 13 13 14 13 13 14 13 12 13 13 12 12 12 11 11 12 12 12 12 12 13 13 14 15 15 16 15 15 15 15 14 14 14 13 13 13 13 13 13 14 15 15 15 14 14 14 14 13 13 13 13 13 13 13 13 13
2 2 2 2 3 2 1 1 1 3 3 4 2 6 3 3 7 4 15 15 20 22 16 17 17 22 16 11 20 24 24 22 20 21 20 17 16 15 13 13 13 13 13 13 12 13 14 14 12 12 12 12 12 12 11 11 12 12 12 12 12 13 14 14 14 15 16 15 14 14 14 14 15 15 13 12 12 12 13 14 14 14 14 14 14 14 14 13 12 12 12 12 13 13 14 15 15
2 1 2 2 1 1 2 1 1 2 3 2 2 3 3 1 5 5 11 17 17 14 12 22 25 20 13 13 23 26 26 24 22 21 19 18 17 15 13 12 12 13 12 12 12 12 14 14 13 13 12 11 11 11 11 11 12 12 12 12 12 13 14 14 14 15 15 14 14 14 14 14 14 14 13 12 12 12 13 14 14 14 13 14 14 13 13 13 13 13 13 13 13 14 15 15 14
3 3 2 1 1 1 3 1 1 2 2 1 4 4 2 1 1 7 4 14 12 17 21 28 29 19 16 18 21 26 27 26 24 22 20 19 18 15 13 12 13 13 12 12 12 12 14 15 14 14 13 13 13 12 12 11 11 13 13 12 13 13 14 15 15 14 14 14 14 14 14 13 14 13 13 12 12 12 12 13 13 13 13 13 13 13 13 14 15 16 16 16 15 15 15 14 13
4 5 3 1 2 0 1 1 1 2 2 1 3 2 2 4 3 7 6 11 12 27 27 24 25 17 16 16 18 28 29 28 27 24 22 20 19 15 13 13 13 13 13 12 12 12 13 13 14 13 13 13 12 12 13 12 12 13 14 13 13 14 14 15 15 14 14 14 13 14 14 13 13 13 13 12 12 12 12 12 13 13 13 13 14 15 16 17 19 20 20 19 18 18 17 16 15
6 5 4 1 1 0 0 1 2 1 1 0 2 1 3 3 6 8 7 15 18 27 25 22 18 14 22 21 23 33 32 31 29 26 23 20 18 15 14 14 14 14 13 12 12 11 12 12 12 12 12 12 11 11 12 13 13 13 14 14 14 15 14 14 15 15 14 14 13 13 13 13 13 13 13 12 12 12 12 12 13 14 14 14 16 18 19 19 21 21 21 20 19 19 18 17 16
7 3 3 2 1 1 1 1 2 1 1 1 3 4 1 3 8 9 7 22 25 23 24 21 14 19 28 24 28 35 34 33 29 25 22 20 19 16 15 15 15 14 13 13 11 11 12 12 12 12 12 12 12 11 12 13 14 14 15 15 15 15 15 15 15 15 15 14 13 13 13 13 13 13 13 13 13 12 12 12 14 15 16 17 19 20 21 20 21 20 20 19 19 19 17 16 14
7 2 2 3 1 2 2 2 3 2 2 3 3 5 4 5 9 4 10 20 23 18 20 21 18 23 26 25 31 35 34 31 27 25 22 21 19 17 16 16 15 15 14 13 12 12 12 12 12 12 12 12 13 13 15 16 16 16 17 17 17 16 15 16 16 15 15 14 14 13 14 13 13 13 13 13 13 12 12 13 15 18 19 20 21 21 21 20 20 19 18 18 18 17 16 15 14
6 1 3 2 3 4 5 6 4 2 2 1 3 7 8 8 6 2 6 11 15 12 16 23 25 27 28 28 31 32 32 28 25 22 20 19 17 17 16 15 15 15 15 14 13 12 11 12 12 11 11 12 13 14 15 15 16 17 18 19 18 18 16 16 16 15 15 15 14 15 15 14 14 14 13 13 13 12 13 14 18 20 21 21 20 19 18 17 17 16 16 15 15 15 15 14 14
5 3 2 3 4 5 7 10 6 4 3 1 3 7 14 13 3 2 3 7 9 11 16 23 28 30 31 30 31 32 30 26 23 18 16 16 15 14 13 14 14 14 14 13 12 11 11 12 12 12 12 13 13 14 15 15 17 18 19 19 19 18 17 16 16 15 15 15 15 15 16 16 15 13 13 13 13 13 13 16 19 20 20 19 18 17 15 14 13 13 12 12 12 12 12 12 12
3 3 2 4 6 5 8 14 10 7 4 4 2 7 14 9 1 4 4 7 6 12 22 28 33 34 34 33 31 30 27 25 21 16 14 15 14 13 11 12 13 13 13 13 12 11 11 12 13 13 13 14 14 15 16 18 19 19 19 19 19 19 18 17 16 15 15 15 15 16 16 16 15 14 13 14 13 13 15 17 19 19 19 17 15 14 13 12 11 11 10 10 10 10 10 10 11
3 1 2 4 6 4 9 17 14 11 11 10 5 6 7 3 2 3 3 7 8 17 26 32 36 36 36 34 30 28 26 24 20 17 15 14 15 13 11 12 12 13 12 12 12 11 12 13 13 14 14 14 15 16 18 19 20 20 20 20 19 19 18 18 18 16 16 16 16 16 17 16 15 14 14 14 14 14 16 18 18 18 16 14 12 11 10 10 9 8 8 8 8 9 9 11 11
3 1 3 4 5 6 9 16 14 11 14 12 7 5 2 1 2 3 2 7 18 27 31 32 34 34 34 31 28 27 25 23 21 19 17 16 16 14 13 13 12 12 12 11 11 12 12 13 14 14 15 16 16 17 19 20 21 21 20 20 19 19 19 19 17 16 16 17 16 17 17 16 15 15 15 14 14 15 18 18 17 16 14 12 11 10 9 9 8 7 7 7 7 8 9 10 9
6 4 3 5 9 9 6 13 12 10 14 13 7 4 1 2 1 4 3 13 26 31 32 32 32 31 30 28 28 26 25 24 21 19 17 15 14 13 13 13 12 13 13 12 12 13 13 13 14 15 16 17 18 19 20 21 21 21 21 20 19 19 19 18 17 18 18 19 19 19 18 17 16 15 14 15 15 17 17 16 15 13 12 11 10 10 9 9 8 8 8 8 8 7 8 9 8
3 4 6 5 9 10 8 13 13 10 11 9 7 3 2 3 3 4 5 18 30 31 31 31 29 27 27 27 27 25 25 24 20 19 17 14 13 13 13 12 13 13 14 14 13 14 14 14 15 16 17 18 19 21 21 22 22 22 21 20 20 19 19 19 19 19 19 18 18 18 17 16 15 14 14 15 16 16 15 14 13 12 11 10 10 10 9 8 8 9 8 8 7 5 5 7 8
1 6 9 8 8 10 11 13 11 9 8 5 4 2 1 2 4 1 4 17 30 32 31 29 27 26 26 26 25 24 25 23 21 20 17 15 15 13 13 13 12 13 14 15 15 15 15 15 16 17 18 19 21 22 23 23 22 21 21 21 21 20 20 20 19 19 18 18 17 16 16 15 14 13 14 15 16 14 13 12 11 11 11 10 9 9 8 8 7 7 6 5 5 5 5 6 6
10 14 12 11 11 9 10 10 8 8 7 5 3 1 1 1 2 2 9 24 32 31 31 28 27 25 26 25 23 24 24 22 20 20 18 17 16 14 14 14 13 13 13 15 16 16 16 16 17 18 19 21 22 23 23 23 22 22 22 22 22 21 21 19 18 17 17 16 15 14 13 13 13 13 14 15 14 13 11 11 11 11 10 9 8 7 6 5 4 4 5 5 6 6 5 5 4
21 20 14 11 12 11 10 9 5 6 6 6 4 1 3 1 1 3 10 28 31 30 31 28 28 27 26 23 21 24 23 20 20 19 19 18 16 14 14 15 15 14 14 16 16 17 18 17 17 18 20 22 23 23 23 22 21 21 22 22 23 22 20 17 15 13 13 12 12 12 11 11 11 12 14 14 12 12 11 11 11 10 8 7 7 6 4 3 3 6 8 7 6 6 3 5 5
18 16 10 4 6 8 8 5 5 6 4 3 3 1 3 3 2 6 6 22 28 29 31 28 28 27 23 20 22 25 22 21 21 20 19 19 16 14 14 15 15 16 16 16 17 18 19 19 18 19 20 22 23 22 21 20 20 21 21 21 21 20 18 15 12 11 10 9 10 10 9 8 9 11 13 13 12 12 11 11 10 8 7 6 6 6 5 5 7 8 8 7 5 4 4 4 6
8 7 6 4 3 4 3 3 5 5 3 2 5 2 3 5 3 6 7 17 27 26 26 26 24 22 21 23 25 25 21 21 21 21 20 20 17 13 14 15 15 17 17 17 18 18 19 19 19 19 20 21 21 20 19 20 20 19 19 20 19 18 17 14 11 10 9 6 6 9 8 6 9 12 13 13 13 13 12 11 10 9 8 6 5 4 6 7 8 8 7 6 5 4 5 4 7
3 2 3 3 3 0 1 2 5 4 2 1 6 2 5 6 5 5 7 11 24 23 20 23 22 21 22 25 26 23 21 19 19 21 21 19 17 14 14 16 16 18 18 19 18 18 18 18 19 20 21 20 20 19 19 19 19 19 19 19 19 17 15 12 9 9 8 6 6 8 7 6 10 12 12 13 13 12 11 11 10 10 8 5 4 5 6 6 7 7 6 6 5 5 4 4 6
1 2 1 2 4 2 2 4 7 4 2 3 3 2 4 5 5 4 5 5 14 14 15 22 22 23 24 25 25 22 21 19 18 21 22 19 16 15 15 16 17 19 19 20 19 19 18 17 18 19 21 20 20 19 18 18 19 20 19 18 16 15 13 10 9 9 8 9 9 9 7 7 10 11 12 13 13 12 10 9 9 9 7 5 5 7 7 7 7 7 6 6 5 4 4 5 7
2 3 2 0 4 2 0 4 10 7 6 4 3 3 2 4 5 4 2 2 9 11 15 21 19 22 26 26 25 23 22 21 19 21 23 20 17 16 15 16 18 19 20 21 20 19 19 18 18 19 20 20 20 18 17 18 19 18 17 15 12 10 8 7 8 8 8 10 12 11 10 9 12 12 13 13 12 11 10 10 9 8 6 5 6 7 7 7 8 7 7 6 4 3 4 6 9
3 1 2 2 4 4 3 2 8 9 6 4 3 3 3 4 5 7 4 1 8 11 14 17 16 19 26 27 25 24 24 24 22 21 23 22 18 17 16 16 18 19 20 21 21 20 19 19 19 19 19 19 19 17 17 18 17 15 14 13 10 8 6 5 8 8 8 11 13 13 12 12 13 14 14 13 12 12 12 11 9 8 7 6 6 7 7 8 8 8 7 6 4 4 4 5 7
4 3 3 2 3 4 6 4 7 10 5 3 4 2 5 4 4 8 8 3 7 10 10 12 15 18 25 27 26 25 26 25 22 21 23 22 20 18 16 17 19 19 21 21 20 19 19 20 19 19 20 20 18 16 18 18 16 15 14 13 11 9 8 7 8 9 10 12 12 13 14 14 14 15 14 14 13 12 12 11 9 9 7 7 8 7 9 9 9 9 8 7 5 4 4 5 6
8 7 5 5 4 2 4 4 7 11 5 4 6 4 5 5 5 7 9 6 7 9 8 9 11 16 24 26 25 26 26 24 21 21 24 24 21 20 18 18 20 21 21 21 20 18 19 20 20 21 21 20 18 17 19 18 16 15 14 14 14 12 11 8 9 10 10 11 12 12 14 14 14 14 14 14 13 11 12 12 10 9 8 8 8 8 9 10 10 9 9 7 4 3 5 5 5
8 6 5 6 5 2 2 2 5 10 5 4 7 5 6 7 5 7 9 8 7 9 9 8 9 14 22 25 24 27 25 22 19 19 25 26 23 22 19 18 21 23 22 21 21 19 19 22 23 23 21 20 19 18 19 18 17 16 14 15 15 14 13 10 8 9 8 9 11 12 13 14 14 14 14 14 13 13 13 12 10 10 9 8 8 8 9 9 9 9 9 7 3 2 3 2 3
7 5 6 3 1 2 1 3 6 8 3 3 5 4 6 6 5 7 9 8 7 11 11 10 9 11 19 23 24 27 24 22 20 19 26 29 26 25 21 19 21 24 23 22 22 20 19 22 23 24 22 19 18 18 19 19 18 16 15 15 14 15 14 11 8 8 8 8 11 12 13 15 14 14 14 14 15 14 13 12 11 11 9 7 7 8 9 8 8 8 8 6 3 2 3 1 2
7 4 6 4 2 2 3 2 6 6 1 1 4 4 4 5 4 5 8 7 7 12 13 13 12 9 14 21 25 27 25 23 22 21 28 32 29 27 24 21 22 25 24 23 23 21 20 22 22 24 24 20 19 20 20 20 18 15 15 15 14 16 15 11 10 8 8 9 11 13 13 15 15 14 14 14 14 14 13 11 10 11 10 8 7 7 8 8 8 8 7 6 4 3 3 2 2
5 6 5 4 6 5 1 2 5 5 3 2 5 3 3 4 4 4 7 8 4 8 12 12 14 11 10 19 26 28 27 27 25 24 30 33 30 28 26 24 25 27 27 26 25 23 22 23 23 24 26 24 22 22 21 20 18 16 17 15 14 16 15 12 11 10 10 11 12 13 13 14 14 14 14 13 13 13 13 12 10 9 10 9 7 7 8 7 7 7 7 7 5 4 3 2 2
2 7 5 5 8 4 2 5 5 3 2 3 6 2 4 3 4 4 5 7 5 6 10 11 14 13 9 15 25 28 28 30 28 28 32 34 32 31 27 26 27 28 29 29 27 26 26 26 24 23 26 27 24 24 23 20 18 18 19 17 15 16 15 13 13 12 12 13 13 13 14 13 14 14 14 13 12 12 13 12 11 9 9 10 8 8 8 6 6 5 5 7 6 5 4 3 3
2 3 5 9 11 6 6 9 6 3 2 3 6 2 4 4 4 6 3 4 7 7 9 12 15 16 12 13 21 27 28 29 30 30 34 35 32 32 29 27 29 30 30 30 28 27 28 27 25 22 25 28 26 26 24 20 19 19 20 19 19 19 17 17 15 13 14 13 12 13 13 13 13 14 13 12 11 11 12 12 12 10 9 10 9 9 9 8 7 6 5 7 7 6 6 5 5
3 4 6 12 11 8 11 11 6 3 3 5 5 3 3 4 4 7 4 4 7 6 7 12 16 18 16 14 19 25 27 29 31 31 32 35 33 33 32 29 31 32 31 29 27 27 28 27 25 22 24 28 27 26 24 21 19 19 19 19 20 20 19 18 14 11 12 12 11 13 14 14 13 13 13 13 12 12 11 11 11 11 10 11 10 10 10 9 9 7 6 7 6 6 7 5 5
2 4 7 13 10 9 13 12 6 4 3 2 4 4 1 3 5 4 6 6 6 6 7 10 15 19 19 17 18 24 28 29 31 31 31 34 34 33 33 31 31 32 32 30 29 29 28 27 25 23 25 28 27 25 23 22 21 19 18 18 19 18 16 15 11 9 10 10 11 12 14 14 13 13 13 13 12 12 12 11 11 12 12 12 11 11 10 9 8 7 6 7 5 6 7 6 7
5 5 6 12 11 11 13 10 6 2 5 2 5 3 1 4 4 1 5 5 6 9 10 10 14 19 21 21 20 21 27 30 31 31 32 34 35 34 33 31 31 32 32 32 31 30 28 27 25 24 27 28 27 25 24 23 22 20 18 18 18 16 13 12 11 9 10 10 10 12 13 14 13 13 13 12 12 12 12 11 11 12 12 13 12 11 10 9 8 7 7 6 6 6 6 6 7
5 0 5 6 7 11 10 8 4 2 3 4 7 6 2 4 4 1 3 3 7 9 9 10 15 20 22 23 23 21 24 30 32 31 32 33 35 35 33 31 31 31 31 32 32 31 29 28 27 26 28 29 28 26 26 25 23 21 20 19 19 17 15 13 13 11 11 11 11 12 14 13 12 12 11 10 11 12 12 11 11 12 12 13 13 11 10 9 8 7 7 7 7 6 5 5 7
3 5 5 4 4 7 5 2 3 3 1 5 8 9 5 2 4 2 3 4 6 7 6 8 13 20 23 24 25 24 23 28 32 32 31 32 34 35 33 32 32 30 30 31 32 32 30 29 29 28 28 30 29 28 28 27 24 22 21 21 19 18 17 15 15 14 13 13 13 13 13 13 12 11 10 10 10 10 11 11 11 11 12 13 13 12 11 10 8 8 8 8 7 6 5 5 6
3 5 4 3 3 2 3 3 2 2 4 6 4 6 5 1 4 4 4 6 4 5 6 9 13 19 24 25 25 26 25 27 32 34 32 31 33 35 34 33 32 31 30 31 32 32 31 31 31 30 28 29 30 29 28 27 25 23 22 22 21 19 18 17 17 17 15 15 14 13 13 13 12 11 11 11 10 10 11 11 11 12 13 13 12 12 12 11 9 8 7 7 7 6 5 6 6
5 4 5 4 2 3 3 3 0 2 5 4 1 5 3 3 5 5 6 6 5 7 10 12 16 22 25 27 26 26 26 26 31 35 34 32 32 34 36 34 33 32 30 31 32 31 30 30 31 32 31 29 29 30 28 26 26 25 24 23 21 20 19 19 18 18 17 16 15 14 14 14 12 12 13 12 11 11 11 11 11 12 13 12 12 12 12 12 10 9 7 6 6 6 5 6 6
4 2 4 4 2 2 2 3 1 1 4 3 3 4 1 3 3 5 7 6 5 10 16 18 20 24 27 29 29 27 26 27 30 35 36 36 34 34 36 36 34 33 31 30 31 31 30 29 29 31 32 30 29 30 29 26 25 26 26 24 22 22 21 19 19 19 18 17 15 14 14 13 11 11 12 12 11 11 11 11 11 11 11 11 11 12 12 12 12 10 8 7 7 7 6 6 6
2 2 5 4 3 4 2 2 1 2 3 3 5 2 2 1 2 4 6 7 5 4 12 17 19 23 26 27 28 27 26 27 31 35 37 38 37 34 34 36 35 33 32 31 31 32 32 30 28 29 32 31 29 29 29 27 26 26 27 25 23 23 22 20 19 19 18 17 15 14 14 13 12 11 12 12 11 10 10 11 11 10 10 11 11 11 11 12 12 11 9 10 10 8 6 7 7
1 2 5 2 3 5 2 2 4 2 1 1 2 0 2 2 2 3 4 6 5 3 2 9 13 16 20 22 24 26 25 26 30 35 37 39 40 37 35 35 36 34 33 33 33 33 32 31 29 27 29 31 29 28 29 29 27 26 27 26 24 23 23 21 20 19 18 16 15 15 14 13 13 13 12 12 11 10 10 11 10 9 10 11 11 11 11 11 11 11 11 12 12 10 8 8 8
0 3 2 3 4 6 3 1 2 3 3 1 1 1 3 2 1 3 5 6 6 5 2 6 10 11 14 19 23 24 22 23 28 34 36 37 39 39 37 36 36 35 35 35 35 34 32 31 29 27 27 30 30 28 28 29 28 27 27 27 26 23 23 22 20 19 17 15 15 15 14 14 14 14 14 14 13 12 12 11 10 9 10 12 11 11 11 12 12 11 12 12 11 10 10 10 10
4 2 4 2 2 4 3 1 3 4 2 2 1 2 2 1 1 4 6 6 6 6 3 2 6 9 13 17 20 23 20 19 24 32 35 36 36 37 37 36 37 36 36 37 36 34 33 31 30 28 27 28 31 30 28 29 29 28 28 28 27 24 22 21 20 18 17 16 16 15 14 14 14 13 13 14 15 14 13 12 12 11 12 12 12 11 10 11 12 12 11 11 11 10 11 10 10
5 5 4 3 3 1 2 2 1 2 0 2 2 0 1 2 1 4 6 5 5 6 5 3 0 4 11 16 18 20 18 16 21 28 32 34 34 35 36 36 37 36 35 38 38 35 34 33 31 29 26 26 30 31 29 30 30 29 28 28 27 25 22 21 20 19 17 17 16 16 16 16 15 13 12 14 16 16 14 14 14 14 14 13 13 12 11 11 12 11 10 11 10 10 10 10 9
5 4 3 3 3 3 1 2 2 2 1 1 1 2 1 3 3 3 4 5 3 4 5 4 5 5 2 9 14 18 18 16 18 23 28 32 34 36 37 37 38 37 35 37 39 38 36 34 32 29 25 24 28 31 30 30 30 29 29 28 27 25 23 22 21 20 19 18 17 16 17 16 15 14 13 14 16 16 15 15 16 16 15 15 14 13 11 11 12 11 9 9 9 9 10 9 8
4 4 3 1 2 2 2 1 1 3 3 2 1 2 4 4 3 3 4 4 2 1 2 4 8 10 8 6 5 12 16 17 17 18 23 30 34 36 38 38 37 37 35 36 40 40 37 35 32 29 26 24 27 30 31 30 30 30 29 29 28 26 25 23 22 21 21 20 18 17 18 17 16 15 15 16 17 16 15 16 16 16 15 14 14 13 11 10 11 10 8 8 8 9 9 8 7
5 4 3 3 2 2 2 1 2 1 3 3 3 1 5 4 2 3 4 2 1 2 2 2 7 9 10 10 8 7 12 16 19 19 21 26 32 37 39 38 36 36 36 36 39 41 39 37 34 31 29 26 26 28 31 30 30 30 29 28 27 26 25 24 23 22 21 20 19 17 16 17 16 15 15 16 17 16 16 16 16 16 14 14 14 14 12 10 10 9 8 7 8 8 8 8 8
Wind_Direction
132 102 80 46 21 8 7 342 95 3 70 88 26 30 111 185 221 155 177 172 170 199 133 126 144 158 150 120 124 90 63 116 180 143 146 149 151 157 154 156 163 160 153 151 150 148 148 146 146 147 147 146 146 146 143 139 135 133 132 134 136 133 128 124 125 124 123 122 122 121 119 117 117 118 115 115 117 118 118 118 120 119 118 119 119 116 119 121 120 118 120 120 120 121 120 121 121
96 70 47 31 360 348 329 338 89 15 57 78 357 173 63 323 231 162 157 121 119 114 109 114 112 115 118 114 118 98 45 25 139 125 123 142 150 155 154 155 160 158 157 154 154 154 153 153 152 152 151 149 147 147 142 138 135 135 133 133 132 128 127 127 130 129 126 124 122 122 120 119 120 119 117 115 117 117 117 116 116 117 119 121 120 117 120 123 123 121 123 123 122 122 121 122 121
36 42 40 14 346 334 282 16 91 64 68 90 354 269 318 266 170 150 128 106 111 108 104 109 106 113 119 100 95 102 55 71 122 127 129 149 153 151 153 154 157 159 159 158 160 160 160 158 156 155 154 150 148 147 142 137 136 135 132 129 128 126 129 132 135 133 130 128 125 123 122 122 122 120 118 116 115 115 115 115 114 117 120 121 122 122 124 125 124 124 125 124 123 122 121 121 121
42 31 20 336 177 138 50 53 97 103 93 118 131 256 277 195 160 151 112 108 114 105 97 99 89 113 115 101 94 92 98 108 126 133 139 154 153 148 151 156 162 163 162 164 164 165 166 160 157 156 155 154 150 148 141 138 137 134 129 128 129 129 132 135 136 135 133 130 128 128 125 124 123 119 117 116 114 114 114 115 116 118 121 122 123 124 125 125 125 127 126 125 124 122 122 122 120
32 18 12 6 159 153 95 80 63 95 135 168 153 252 265 210 164 170 98 101 112 101 97 98 82 100 98 100 113 106 123 125 132 138 142 152 151 148 150 158 163 163 163 164 165 166 167 163 161 158 156 155 150 147 142 138 135 132 131 132 134 132 132 135 138 137 134 131 129 130 127 126 124 121 119 116 114 113 113 115 119 121 122 124 124 124 126 125 125 125 125 125 125 125 125 124 121
9 6 17 59 99 91 92 75 71 88 205 166 145 260 238 196 172 150 94 91 104 103 99 98 99 101 83 87 106 118 136 133 138 142 142 148 148 148 151 158 160 160 161 161 164 163 163 162 162 160 156 154 152 151 147 141 136 134 135 138 137 135 133 135 138 138 135 132 132 132 128 126 124 122 120 117 114 113 114 115 120 123 124 126 126 125 125 125 124 123 125 124 125 126 127 125 121
357 359 16 57 64 64 82 81 97 98 298 134 150 270 248 183 144 112 95 91 94 102 104 103 109 100 85 103 104 115 138 137 138 142 142 144 145 149 154 158 159 158 160 161 163 160 159 159 158 160 156 154 155 154 151 146 143 139 139 140 138 137 138 138 138 137 136 134 134 134 129 127 124 120 119 116 115 115 115 116 120 123 124 126 125 125 125 125 123 123 126 125 126 127 127 126 120
360 356 16 51 47 45 80 84 72 79 15 314 281 326 332 327 68 107 104 103 100 103 107 114 111 92 92 113 106 123 137 138 135 139 141 141 146 151 156 158 161 159 160 160 159 160 159 158 158 159 158 160 159 155 152 150 148 143 140 142 140 140 140 139 138 137 136 135 135 134 130 129 125 120 119 116 116 117 117 118 120 122 123 123 124 126 129 129 128 128 130 129 129 130 129 127 121
359 2 25 54 70 56 71 64 47 41 9 334 318 358 7 335 334 94 103 87 105 102 107 121 109 95 104 106 108 132 138 142 136 138 140 142 147 150 157 160 164 161 160 159 158 161 156 157 159 158 162 164 161 157 155 153 152 146 144 147 144 142 140 139 138 136 134 135 136 135 134 131 126 123 123 120 119 118 116 119 121 123 123 122 124 126 128 129 129 129 130 130 131 132 131 128 124
360 23 42 66 63 65 57 24 52 9 324 347 338 8 43 356 334 60 109 96 105 93 102 116 105 106 115 106 112 134 140 145 139 140 143 144 148 148 152 156 166 164 161 161 163 161 151 155 158 159 164 164 163 159 157 157 156 150 149 151 147 142 139 140 138 136 135 136 137 137 137 134 129 128 129 127 124 119 116 118 122 124 123 122 122 121 122 123 126 126 126 126 126 127 127 128 127
355 24 36 65 46 57 66 39 35 318 313 341 30 27 43 111 334 354 110 103 109 104 109 107 101 113 114 108 119 135 142 147 144 146 150 148 147 146 147 153 165 165 163 165 166 159 150 156 159 161 164 165 166 160 158 160 158 154 153 152 147 144 140 141 141 140 139 138 139 137 137 135 132 131 132 131 125 120 116 118 121 122 123 122 121 119 118 120 123 125 124 122 119 118 121 126 127
317 14 34 67 55 61 95 78 37 313 338 355 13 32 6 153 328 314 118 114 119 116 120 113 118 123 110 109 128 139 143 148 150 151 155 153 149 148 148 154 161 165 167 167 165 161 154 157 162 165 165 168 168 162 161 162 162 157 155 153 147 146 142 142 144 144 142 142 142 140 140 138 134 132 131 129 125 121 117 118 120 120 121 121 121 118 116 115 117 120 121 117 114 114 118 123 124
244 120 78 74 55 74 89 52 42 349 348 26 278 348 328 274 336 305 123 126 128 116 124 127 131 125 111 124 135 143 146 152 155 154 159 155 155 158 158 156 159 166 168 168 167 167 163 161 165 167 168 171 169 165 164 165 165 158 156 155 147 145 143 144 147 146 145 145 145 144 142 139 132 129 127 126 125 121 118 118 120 120 120 120 119 116 112 109 109 112 114 114 116 119 122 123 123
208 112 97 94 52 59 91 48 31 62 304 240 261 291 301 214 32 292 141 124 128 128 133 135 133 121 119 131 138 150 152 156 155 154 158 156 162 166 163 155 158 167 167 171 172 174 171 167 170 170 173 173 170 168 166 166 164 157 156 154 148 146 144 148 149 147 147 146 146 145 142 137 131 127 125 124 124 122 119 119 120 119 117 117 115 110 108 108 108 110 112 115 118 120 122 121 122
182 108 87 91 75 26 86 126 148 117 243 258 289 318 277 220 164 268 198 125 129 136 135 140 137 125 141 149 147 156 156 154 153 155 157 158 165 167 161 153 158 166 167 174 177 178 176 173 176 175 178 176 175 173 167 166 161 155 153 151 149 148 148 150 149 146 146 145 145 143 140 139 133 128 125 123 125 124 121 119 117 115 115 113 109 108 109 110 111 112 113 113 112 113 114 114 116
161 113 80 68 67 93 280 134 114 103 259 274 245 280 335 246 180 244 203 130 135 143 142 150 151 142 152 154 149 156 155 152 156 161 160 158 162 161 157 153 158 165 169 179 182 180 176 175 177 176 176 175 179 179 172 167 158 156 153 150 150 149 151 150 147 145 144 145 143 141 141 139 133 128 126 127 129 127 121 118 115 114 112 108 107 110 111 112 114 115 114 112 110 111 110 109 110
144 111 87 104 62 112 158 150 117 81 326 336 221 204 15 274 225 235 163 135 143 151 152 153 154 144 144 149 151 154 153 156 161 161 159 157 159 158 155 156 159 164 173 181 181 178 175 175 175 174 174 171 175 174 173 166 158 159 155 152 152 151 153 149 147 145 143 144 142 142 141 135 130 127 128 131 131 127 122 118 114 111 109 108 112 114 114 114 114 115 115 114 113 112 110 106 103
140 75 96 129 141 124 160 136 98 64 19 1 308 253 192 237 248 204 123 139 147 145 148 143 135 137 138 145 151 154 157 161 162 159 157 158 161 160 158 162 163 167 172 174 174 174 176 177 175 174 172 170 171 169 170 167 161 161 158 156 154 153 155 151 149 147 146 144 142 139 136 133 130 128 129 131 131 128 123 118 113 109 110 112 116 117 115 114 112 113 113 114 114 113 110 103 97
151 72 98 162 172 143 151 121 104 108 88 59 252 248 231 241 257 138 117 144 145 129 136 134 129 134 135 141 150 155 159 160 160 161 159 159 163 163 162 164 164 168 170 168 168 170 177 178 176 174 172 170 168 165 167 165 160 161 161 159 156 153 154 153 151 149 147 143 140 136 132 132 131 130 131 131 131 129 123 116 113 112 114 115 116 114 111 110 108 108 109 112 114 115 113 106 102
180 133 110 236 175 133 136 117 122 138 84 291 195 247 258 257 284 54 129 132 132 130 139 137 133 140 139 141 149 152 155 157 161 164 159 161 166 167 164 161 162 166 166 165 165 167 172 173 172 170 170 168 163 161 161 161 159 160 162 159 155 152 151 149 146 144 143 139 138 137 135 134 134 132 131 130 129 126 120 117 118 118 117 114 110 106 102 101 99 99 101 104 108 114 119 117 116
179 158 158 205 160 124 136 129 143 151 144 221 221 272 260 245 3 31 118 119 122 144 149 146 143 148 147 146 150 154 157 157 162 168 166 167 167 168 163 155 156 159 158 160 163 164 165 166 167 165 164 163 160 158 158 159 158 158 159 155 150 146 145 143 138 136 136 134 136 139 139 137 135 132 130 128 124 120 118 120 122 120 117 111 104 98 94 90 88 91 94 99 104 110 123 129 127
88 36 81 144 148 124 147 143 155 154 154 192 228 253 235 209 44 32 116 131 145 151 150 148 148 152 153 153 154 157 160 161 169 178 178 173 167 167 162 154 153 156 157 159 161 158 161 164 164 162 159 157 157 157 158 159 156 155 154 150 146 143 142 139 135 133 130 129 133 137 138 138 135 132 129 124 121 120 121 124 124 121 116 110 103 96 90 85 83 83 87 97 106 113 129 137 133
110 52 60 89 106 107 147 150 157 155 156 186 216 219 207 55 72 43 8 154 150 149 149 149 149 154 156 158 160 162 167 171 178 180 178 172 167 167 163 158 156 153 154 157 157 153 158 162 161 159 155 154 156 158 158 158 155 152 150 146 144 142 140 138 134 131 126 124 127 131 133 133 131 128 124 119 120 123 124 125 123 120 115 109 103 96 93 91 88 85 86 97 106 117 137 141 132
130 138 118 83 84 101 142 147 149 159 166 183 185 176 131 92 71 2 36 142 148 148 150 150 151 154 157 162 167 169 171 173 177 176 173 171 168 166 161 156 154 152 150 155 154 148 152 156 157 156 155 155 155 156 157 156 152 149 147 145 143 140 137 136 132 126 121 122 125 128 128 127 124 122 121 121 123 126 127 127 123 118 111 105 99 95 98 97 97 96 93 101 102 110 137 134 112
100 119 140 99 89 109 120 133 136 144 154 163 154 142 129 89 357 337 86 134 147 149 149 150 152 157 161 169 173 171 171 171 172 169 166 168 167 162 160 155 153 153 151 153 151 145 148 152 153 153 154 155 155 155 155 153 150 146 144 143 142 137 133 130 127 123 120 123 125 126 126 124 123 123 127 127 127 128 129 128 123 116 109 104 99 98 100 100 103 99 95 100 93 93 134 126 92
148 113 124 112 106 111 111 121 119 124 128 135 140 95 110 45 353 334 114 142 148 148 149 151 154 162 169 176 176 171 170 169 166 164 161 164 166 164 164 161 156 155 153 152 151 147 149 151 150 151 153 154 155 154 153 151 147 144 143 142 141 134 130 127 126 126 124 123 123 125 126 123 121 125 134 134 132 131 129 127 123 117 112 106 100 97 97 101 100 91 90 96 91 99 138 136 88
128 111 103 103 103 94 96 95 85 110 96 70 115 26 313 344 341 103 138 149 149 148 150 153 159 167 175 182 177 168 168 166 161 157 156 161 167 168 166 164 161 159 156 153 151 147 148 151 148 149 153 152 152 152 151 149 145 144 144 141 137 132 129 128 128 131 131 128 123 122 123 123 123 129 137 137 134 132 130 129 125 116 107 101 95 93 97 100 90 96 110 111 117 124 150 168 120
124 110 88 81 91 78 75 78 83 112 78 50 90 182 319 332 163 61 129 152 152 151 154 158 165 172 179 182 170 163 162 161 159 157 160 165 169 172 169 165 162 160 159 156 152 147 146 149 148 148 151 150 149 151 150 148 145 145 143 140 136 133 132 133 136 139 140 139 135 129 125 123 128 138 140 137 135 134 134 132 126 114 105 106 110 109 120 133 121 127 129 127 131 118 139 191 172
129 112 90 82 89 66 57 86 126 117 89 36 54 139 325 312 179 38 96 159 157 154 159 164 169 173 178 173 159 158 160 159 160 163 168 170 170 174 172 166 162 159 157 156 154 149 146 148 150 149 151 150 148 149 148 147 147 145 144 144 141 139 141 144 146 143 135 135 142 143 131 121 136 148 146 141 139 139 137 133 128 126 126 125 123 124 139 150 138 136 138 138 138 97 90 174 181
130 106 103 134 74 44 45 106 131 111 122 60 35 144 247 285 260 22 59 158 162 158 161 164 166 168 165 160 155 156 159 160 163 168 172 173 171 172 173 168 162 157 155 158 157 152 149 149 152 154 152 151 149 149 150 148 148 148 150 150 147 147 150 151 147 139 136 136 145 152 147 138 153 158 151 146 144 142 140 137 137 143 146 137 126 129 140 143 138 140 142 139 139 100 87 139 168
140 89 96 117 72 93 240 189 144 107 190 122 56 135 223 276 292 359 37 141 159 160 163 160 158 159 156 155 156 157 160 164 168 173 176 175 171 169 172 170 163 160 160 159 158 154 152 152 154 156 154 154 153 152 151 150 149 149 151 151 149 151 154 153 147 148 166 185 176 166 169 163 162 162 154 151 149 146 145 143 145 148 145 136 136 147 149 146 142 143 147 146 140 106 94 143 159
155 104 12 33 85 165 269 219 186 147 188 195 103 145 236 273 280 308 15 106 143 147 155 153 155 160 157 156 158 159 162 165 170 176 179 179 174 170 170 171 167 165 164 161 160 157 155 156 156 156 157 157 157 153 150 150 148 146 147 149 151 155 158 155 160 175 193 200 192 186 193 181 170 168 161 158 153 149 149 146 149 146 136 131 143 152 153 152 150 150 157 158 145 106 95 135 145
278 131 172 107 109 154 306 220 212 176 140 187 186 155 221 269 254 253 313 96 114 109 133 149 161 163 157 159 159 159 164 166 169 172 177 181 176 171 171 171 168 167 167 164 163 160 157 160 160 158 158 158 156 152 150 149 148 145 145 149 153 155 154 157 179 205 214 198 195 199 203 189 176 173 168 163 157 156 157 153 155 147 136 143 149 150 147 150 153 154 161 158 140 102 95 126 138
263 108 127 174 135 152 153 207 208 172 141 179 193 159 198 248 233 217 249 211 115 110 128 149 173 171 159 162 163 162 166 170 172 170 177 183 176 172 174 171 168 168 169 168 165 161 159 162 163 161 159 157 155 153 151 148 146 146 148 153 156 147 147 177 206 214 202 191 195 202 201 189 178 176 172 166 162 163 161 155 155 149 144 151 152 152 148 151 158 158 163 159 133 105 103 135 147
200 185 132 158 163 167 173 182 178 164 149 159 164 189 213 243 236 209 227 217 131 125 130 146 170 174 163 163 166 165 168 176 180 175 179 185 178 174 174 172 170 168 168 169 166 161 162 165 164 161 158 155 153 151 151 148 149 153 156 161 164 161 167 183 193 190 186 188 196 198 193 184 178 177 174 170 166 166 164 157 153 154 153 149 147 152 152 154 164 163 159 150 123 96 107 142 162
188 183 148 152 168 192 184 177 163 153 133 155 177 194 213 227 230 213 218 208 152 139 149 154 162 175 170 166 170 171 172 179 180 175 181 186 181 176 174 172 172 169 167 167 166 164 168 168 164 160 156 154 152 150 153 154 158 164 168 173 175 179 184 181 171 175 182 187 192 193 188 181 177 178 177 173 170 173 174 165 159 164 160 149 147 153 158 160 160 161 159 146 112 89 120 135 162
190 154 145 159 156 185 182 154 158 147 132 195 191 186 208 214 219 220 207 194 172 156 167 177 163 173 175 171 174 174 172 177 176 176 183 184 180 176 174 171 172 172 168 167 168 168 172 171 166 163 159 160 161 158 160 164 168 173 178 183 186 189 193 193 183 180 183 184 190 192 190 186 182 181 180 176 177 181 180 172 169 174 166 151 154 158 162 163 159 161 163 154 121 102 142 141 166
182 139 146 145 117 212 172 106 159 154 132 205 181 182 219 221 226 228 199 184 196 183 176 187 178 169 175 175 174 170 169 174 176 177 179 178 176 175 174 171 174 176 172 172 174 171 174 175 171 167 166 173 177 171 170 173 177 182 184 190 196 195 196 205 209 203 199 195 191 192 193 192 189 187 184 181 184 186 186 183 178 178 170 152 158 165 162 163 167 167 166 165 152 131 162 205 214
151 139 140 142 161 158 27 49 163 164 149 197 169 185 245 262 256 236 203 191 210 204 194 194 191 177 177 180 172 166 169 175 175 176 177 175 175 175 175 174 176 177 176 178 180 178 181 181 177 172 172 181 184 179 179 179 183 190 191 195 199 197 198 210 222 215 206 200 191 192 196 194 193 192 188 188 192 190 192 196 189 182 176 162 168 175 164 167 178 176 174 176 173 163 166 183 205
130 142 137 169 177 151 49 218 177 179 198 145 143 173 290 294 291 281 225 210 211 211 208 207 204 196 188 188 179 168 170 175 177 177 175 173 174 175 176 176 176 177 180 185 186 187 187 186 186 181 177 181 181 180 184 182 185 194 197 197 196 198 202 208 215 212 203 197 191 194 197 194 195 195 195 197 198 196 198 205 201 189 184 179 181 179 169 178 185 178 186 187 181 184 184 189 189
135 149 148 168 172 166 164 161 151 175 222 128 116 78 308 261 241 263 239 219 219 212 210 215 215 206 195 194 187 177 173 175 177 176 174 174 175 177 178 178 177 179 184 189 190 191 190 189 195 192 182 183 183 182 185 185 187 193 197 199 194 195 199 200 206 204 197 194 190 192 194 193 196 198 201 204 202 201 201 205 203 195 191 190 190 186 182 195 194 185 199 195 189 197 198 215 227
345 182 176 163 167 164 137 131 117 117 252 213 138 92 291 259 232 238 236 216 222 214 204 214 220 211 199 195 191 184 178 178 180 177 175 177 177 178 181 181 180 182 186 191 192 192 193 194 200 198 187 187 187 183 184 185 185 189 194 197 194 192 193 196 200 194 190 191 187 189 191 191 195 199 203 206 204 202 200 202 201 198 197 196 197 197 194 203 205 203 207 195 194 207 208 219 233
324 251 166 155 161 149 139 135 122 146 222 222 165 132 277 293 271 233 199 201 225 219 206 214 219 215 203 193 192 190 184 180 182 182 178 179 180 180 182 183 183 185 188 190 192 194 196 198 201 196 188 188 185 181 185 184 181 186 192 193 194 193 192 195 196 189 188 187 184 189 193 192 193 196 199 201 202 201 199 199 201 201 201 200 201 201 199 202 207 211 209 199 201 214 216 221 226
256 270 133 150 163 145 144 146 157 193 168 172 177 140 59 290 276 234 169 182 232 235 227 220 217 218 211 197 193 194 191 185 182 183 181 181 183 183 184 186 188 189 189 191 193 195 198 200 200 193 187 185 181 179 186 188 184 188 193 195 197 195 193 194 192 186 187 186 186 193 196 194 193 195 198 199 200 201 198 196 199 202 201 200 202 203 201 201 207 211 206 204 211 216 218 228 230
244 275 124 155 166 150 150 160 188 188 109 146 215 163 106 266 279 346 140 175 230 232 229 221 213 216 214 204 195 194 196 192 187 185 185 185 186 187 188 190 190 191 192 193 195 197 200 201 198 191 187 184 181 182 189 193 191 193 198 199 199 199 199 197 192 188 191 193 195 199 200 198 196 197 198 198 198 200 198 196 199 202 203 203 204 208 208 202 207 210 204 208 214 214 224 233 229
231 221 97 132 144 150 158 168 174 92 97 205 217 181 174 272 278 82 124 195 230 227 226 221 214 214 214 209 201 197 197 197 194 191 190 190 189 189 191 192 192 194 195 196 197 198 200 200 197 193 190 187 186 187 190 195 196 196 199 200 200 201 200 198 196 196 198 201 203 205 206 203 200 198 197 197 197 199 201 200 199 200 204 207 208 215 212 200 203 210 211 218 216 212 224 231 226
172 73 61 56 91 145 153 161 135 106 256 243 216 187 165 288 276 201 168 210 216 207 210 214 214 213 214 211 205 200 198 198 198 195 193 193 191 191 192 192 193 195 197 197 198 200 200 199 199 198 193 190 191 192 192 196 198 198 198 198 199 198 196 197 198 199 202 206 207 210 209 206 204 201 201 202 200 202 206 204 202 202 207 212 214 216 211 202 206 215 220 225 224 217 225 237 235
88 69 62 39 358 66 55 354 65 127 256 277 246 178 139 181 265 261 242 242 218 188 195 200 201 207 211 211 207 202 200 200 200 197 194 191 189 191 191 193 194 195 197 198 200 202 201 201 202 201 197 194 194 196 196 198 200 200 199 198 198 198 199 201 202 200 203 207 209 210 208 204 203 203 205 205 203 208 210 207 207 206 209 216 217 213 208 208 212 217 223 225 223 222 228 242 245
52 61 69 66 351 360 11 309 235 178 246 276 38 110 107 231 242 277 275 255 221 202 210 207 198 199 204 208 207 202 199 201 202 200 198 192 189 190 192 193 195 196 197 199 201 203 202 202 204 203 200 198 197 198 200 201 200 199 200 200 198 200 202 206 209 207 206 209 208 206 207 204 202 208 210 205 201 207 213 213 212 210 211 216 216 211 209 215 221 223 224 223 220 223 232 241 243
52 84 104 100 91 66 322 287 323 280 256 297 23 82 63 283 268 297 300 283 242 216 220 218 206 200 201 205 205 200 197 200 202 202 200 196 191 191 193 195 197 198 199 200 203 205 204 205 207 205 203 203 202 201 201 203 202 200 202 202 198 199 205 209 214 213 211 213 210 207 211 211 209 214 214 207 202 207 213 214 214 214 215 217 217 217 218 223 231 232 231 235 235 234 238 238 239
60 123 123 124 129 138 203 216 159 240 251 311 352 36 168 210 265 293 312 312 308 238 225 220 211 207 204 203 203 199 194 196 201 201 200 198 194 192 194 195 198 200 200 200 204 207 207 207 208 207 206 206 206 204 202 202 202 201 203 204 199 201 208 212 215 214 213 215 214 214 219 222 222 223 220 210 206 212 214 211 213 216 221 225 224 224 225 228 233 235 237 243 244 246 251 246 245
319 83 88 96 162 144 148 182 183 185 152 290 334 351 202 193 241 304 341 336 355 33 199 194 194 201 199 198 201 199 193 193 198 200 200 201 198 195 195 197 200 202 201 202 204 207 209 210 210 210 210 210 209 206 202 202 202 202 203 205 205 206 211 215 216 214 213 215 217 219 220 225 227 227 227 218 212 215 211 209 217 224 228 232 229 226 228 230 233 235 236 242 246 253 260 253 248
308 54 105 214 176 130 116 250 301 55 90 247 212 174 302 335 332 338 9 1 360 20 60 154 165 180 190 195 199 200 194 191 198 201 201 201 199 197 197 197 200 203 203 204 206 208 210 211 212 212 213 213 213 209 205 204 205 204 204 208 210 211 212 215 217 214 213 214 217 221 222 224 225 226 228 228 223 220 217 220 231 238 239 237 230 226 229 232 237 239 239 243 247 252 257 252 249
118 125 194 207 61 77 98 119 352 36 98 268 258 173 263 349 310 332 11 12 347 344 354 152 165 174 189 196 199 202 195 189 197 200 199 200 199 199 200 199 201 203 205 206 208 210 212 213 215 215 216 215 214 212 208 207 208 207 207 209 213 216 215 215 215 214 214 215 218 221 223 222 221 222 226 228 227 224 225 230 237 242 243 239 230 225 227 234 239 241 242 242 242 246 251 249 249
106 155 164 110 77 20 37 93 75 45 56 295 339 186 225 172 236 323 349 349 333 341 354 2 338 193 196 199 201 203 196 187 193 197 199 201 200 201 202 203 204 204 206 208 209 211 212 214 216 217 220 218 214 213 211 210 211 210 209 211 214 218 218 216 216 216 216 219 220 223 225 224 218 217 224 228 226 225 228 234 240 243 241 237 231 224 228 238 239 237 235 235 236 240 242 241 244
50 78 69 75 119 155 122 98 142 137 148 266 329 353 281 226 237 284 308 313 329 348 350 352 356 356 228 210 210 211 207 197 191 195 203 206 204 204 205 205 204 205 206 208 210 212 212 213 215 219 221 219 215 215 213 212 212 213 212 213 215 218 219 219 218 219 220 223 226 227 230 230 224 220 224 228 229 228 232 236 241 244 243 240 235 229 231 237 237 235 231 231 235 239 240 239 238
70 58 45 61 73 103 118 63 82 125 131 178 204 304 269 245 222 227 272 305 309 320 331 329 344 356 354 331 264 231 226 219 208 199 202 206 206 206 206 205 205 205 206 208 209 212 213 212 214 218 220 218 216 215 215 214 213 214 215 215 216 218 220 220 220 221 224 227 230 230 231 233 232 227 224 227 230 231 235 238 239 243 246 245 243 240 238 240 243 239 231 233 243 248 252 252 246
138 135 150 152 122 104 103 23 326 96 134 164 156 218 266 253 206 215 229 240 225 139 110 342 341 349 346 340 326 279 250 240 232 216 201 199 204 207 207 207 207 206 205 206 209 212 214 214 215 218 220 219 217 216 217 216 215 216 217 218 219 220 221 222 222 223 225 226 226 226 227 229 231 233 230 225 226 230 237 241 240 241 243 247 247 239 234 242 247 237 229 241 252 255 260 262 259